Year,Month,Day,Hour,Minute,Value (Times are PST for temperature in C)
2017,07,19,00,00,16.90
2017,07,19,00,01,16.90
2017,07,19,00,02,16.90
2017,07,19,00,03,17.00
2017,07,19,00,04,17.00
2017,07,19,00,05,17.00
2017,07,19,00,06,17.00
2017,07,19,00,07,17.10
2017,07,19,00,08,17.10
2017,07,19,00,09,17.10
2017,07,19,00,10,17.10
2017,07,19,00,11,17.10
2017,07,19,00,12,17.10
2017,07,19,00,13,17.10
2017,07,19,00,14,17.10
2017,07,19,00,15,17.00
2017,07,19,00,16,17.00
2017,07,19,00,17,16.90
2017,07,19,00,18,16.90
2017,07,19,00,19,16.90
2017,07,19,00,20,16.80
2017,07,19,00,21,16.80
2017,07,19,00,22,16.80
2017,07,19,00,23,16.80
2017,07,19,00,24,16.70
2017,07,19,00,25,16.60
2017,07,19,00,26,16.60
2017,07,19,00,27,16.50
2017,07,19,00,28,16.50
2017,07,19,00,29,16.40
2017,07,19,00,30,16.40
2017,07,19,00,31,16.30
2017,07,19,00,32,16.20
2017,07,19,00,33,16.20
2017,07,19,00,34,16.20
2017,07,19,00,35,16.20
2017,07,19,00,36,16.10
2017,07,19,00,37,16.10
2017,07,19,00,38,16.10
2017,07,19,00,39,16.10
2017,07,19,00,40,16.10
2017,07,19,00,41,16.10
2017,07,19,00,42,16.00
2017,07,19,00,43,16.00
2017,07,19,00,44,16.00
2017,07,19,00,45,16.00
2017,07,19,00,46,16.00
2017,07,19,00,47,16.00
2017,07,19,00,48,16.00
2017,07,19,00,49,16.00
2017,07,19,00,50,16.00
2017,07,19,00,51,15.90
2017,07,19,00,52,15.90
2017,07,19,00,53,15.90
2017,07,19,00,54,15.90
2017,07,19,00,55,15.90
2017,07,19,00,56,15.90
2017,07,19,00,57,15.90
2017,07,19,00,58,15.90
2017,07,19,00,59,15.90
2017,07,19,01,00,15.90
2017,07,19,01,01,15.90
2017,07,19,01,02,15.90
2017,07,19,01,03,15.90
2017,07,19,01,04,15.90
2017,07,19,01,05,15.80
2017,07,19,01,06,15.80
2017,07,19,01,07,15.80
2017,07,19,01,08,15.80
2017,07,19,01,09,15.80
2017,07,19,01,10,15.70
2017,07,19,01,11,15.70
2017,07,19,01,12,15.70
2017,07,19,01,13,15.70
2017,07,19,01,14,15.70
2017,07,19,01,15,15.60
2017,07,19,01,16,15.60
2017,07,19,01,17,15.60
2017,07,19,01,18,15.60
2017,07,19,01,19,15.60
2017,07,19,01,20,15.60
2017,07,19,01,21,15.50
2017,07,19,01,22,15.50
2017,07,19,01,23,15.50
2017,07,19,01,24,15.40
2017,07,19,01,25,15.50
2017,07,19,01,26,15.50
2017,07,19,01,27,15.50
2017,07,19,01,28,15.50
2017,07,19,01,29,15.50
2017,07,19,01,30,15.50
2017,07,19,01,31,15.50
2017,07,19,01,32,15.50
2017,07,19,01,33,15.60
2017,07,19,01,34,15.60
2017,07,19,01,35,15.60
2017,07,19,01,36,15.60
2017,07,19,01,37,15.60
2017,07,19,01,38,15.60
2017,07,19,01,39,15.60
2017,07,19,01,40,15.60
2017,07,19,01,41,15.60
2017,07,19,01,42,15.60
2017,07,19,01,43,15.60
2017,07,19,01,44,15.60
2017,07,19,01,45,15.50
2017,07,19,01,46,15.50
2017,07,19,01,47,15.40
2017,07,19,01,48,15.30
2017,07,19,01,49,15.20
2017,07,19,01,50,15.10
2017,07,19,01,51,15.10
2017,07,19,01,52,15.00
2017,07,19,01,53,14.90
2017,07,19,01,54,14.70
2017,07,19,01,55,14.60
2017,07,19,01,56,14.60
2017,07,19,01,57,14.50
2017,07,19,01,58,14.40
2017,07,19,01,59,14.30
2017,07,19,02,00,14.30
2017,07,19,02,01,14.20
2017,07,19,02,02,14.10
2017,07,19,02,03,14.00
2017,07,19,02,04,14.00
2017,07,19,02,05,13.90
2017,07,19,02,06,13.80
2017,07,19,02,07,13.80
2017,07,19,02,08,13.70
2017,07,19,02,09,13.70
2017,07,19,02,10,13.60
2017,07,19,02,11,13.60
2017,07,19,02,12,13.50
2017,07,19,02,13,13.50
2017,07,19,02,14,13.40
2017,07,19,02,15,13.40
2017,07,19,02,16,13.30
2017,07,19,02,17,13.30
2017,07,19,02,18,13.30
2017,07,19,02,19,13.30
2017,07,19,02,20,13.20
2017,07,19,02,21,13.20
2017,07,19,02,22,13.20
2017,07,19,02,23,13.20
2017,07,19,02,24,13.10
2017,07,19,02,25,13.10
2017,07,19,02,26,13.10
2017,07,19,02,27,13.00
2017,07,19,02,28,13.00
2017,07,19,02,29,13.00
2017,07,19,02,30,12.90
2017,07,19,02,31,12.90
2017,07,19,02,32,12.90
2017,07,19,02,33,12.90
2017,07,19,02,34,12.80
2017,07,19,02,35,12.80
2017,07,19,02,36,12.80
2017,07,19,02,37,12.80
2017,07,19,02,38,12.70
2017,07,19,02,39,12.70
2017,07,19,02,40,12.70
2017,07,19,02,41,12.60
2017,07,19,02,42,12.60
2017,07,19,02,43,12.60
2017,07,19,02,44,12.60
2017,07,19,02,45,12.50
2017,07,19,02,46,12.50
2017,07,19,02,47,12.50
2017,07,19,02,48,12.40
2017,07,19,02,49,12.40
2017,07,19,02,50,12.40
2017,07,19,02,51,12.40
2017,07,19,02,52,12.40
2017,07,19,02,53,12.40
2017,07,19,02,54,12.40
2017,07,19,02,55,12.30
2017,07,19,02,56,12.30
2017,07,19,02,57,12.30
2017,07,19,02,58,12.30
2017,07,19,02,59,12.30
2017,07,19,03,00,12.30
2017,07,19,03,01,12.30
2017,07,19,03,02,12.30
2017,07,19,03,03,12.30
2017,07,19,03,04,12.30
2017,07,19,03,05,12.30
2017,07,19,03,06,12.30
2017,07,19,03,07,12.30
2017,07,19,03,08,12.20
2017,07,19,03,09,12.20
2017,07,19,03,10,12.20
2017,07,19,03,11,12.20
2017,07,19,03,12,12.20
2017,07,19,03,13,12.10
2017,07,19,03,14,12.10
2017,07,19,03,15,12.10
2017,07,19,03,16,12.10
2017,07,19,03,17,12.10
2017,07,19,03,18,12.10
2017,07,19,03,19,12.00
2017,07,19,03,20,12.00
2017,07,19,03,21,12.00
2017,07,19,03,22,11.90
2017,07,19,03,23,11.90
2017,07,19,03,24,11.90
2017,07,19,03,25,11.90
2017,07,19,03,26,12.00
2017,07,19,03,27,12.00
2017,07,19,03,28,12.00
2017,07,19,03,29,12.00
2017,07,19,03,30,12.00
2017,07,19,03,31,11.90
2017,07,19,03,32,11.90
2017,07,19,03,33,11.90
2017,07,19,03,34,11.90
2017,07,19,03,35,11.90
2017,07,19,03,36,11.90
2017,07,19,03,37,11.90
2017,07,19,03,38,11.90
2017,07,19,03,39,11.90
2017,07,19,03,40,11.90
2017,07,19,03,41,11.90
2017,07,19,03,42,11.90
2017,07,19,03,43,11.90
2017,07,19,03,44,12.00
2017,07,19,03,45,12.00
2017,07,19,03,46,12.00
2017,07,19,03,47,12.00
2017,07,19,03,48,12.00
2017,07,19,03,49,12.00
2017,07,19,03,50,12.00
2017,07,19,03,51,12.00
2017,07,19,03,52,11.90
2017,07,19,03,53,11.90
2017,07,19,03,54,11.90
2017,07,19,03,55,11.90
2017,07,19,03,56,11.90
2017,07,19,03,57,11.90
2017,07,19,03,58,11.80
2017,07,19,03,59,11.80
2017,07,19,04,00,11.80
2017,07,19,04,01,11.80
2017,07,19,04,02,11.80
2017,07,19,04,03,11.80
2017,07,19,04,04,11.80
2017,07,19,04,05,11.80
2017,07,19,04,06,11.80
2017,07,19,04,07,11.80
2017,07,19,04,08,11.80
2017,07,19,04,09,11.90
2017,07,19,04,10,11.90
2017,07,19,04,11,12.00
2017,07,19,04,12,12.00
2017,07,19,04,13,12.00
2017,07,19,04,14,12.10
2017,07,19,04,15,12.30
2017,07,19,04,16,12.30
2017,07,19,04,17,12.30
2017,07,19,04,18,12.40
2017,07,19,04,19,12.40
2017,07,19,04,20,12.40
2017,07,19,04,21,12.50
2017,07,19,04,22,12.50
2017,07,19,04,23,12.50
2017,07,19,04,24,12.40
2017,07,19,04,25,12.40
2017,07,19,04,26,12.30
2017,07,19,04,27,12.30
2017,07,19,04,28,12.20
2017,07,19,04,29,12.20
2017,07,19,04,30,12.20
2017,07,19,04,31,12.20
2017,07,19,04,32,12.10
2017,07,19,04,33,12.10
2017,07,19,04,34,12.00
2017,07,19,04,35,11.90
2017,07,19,04,36,11.90
2017,07,19,04,37,11.80
2017,07,19,04,38,11.80
2017,07,19,04,39,11.80
2017,07,19,04,40,11.70
2017,07,19,04,41,11.70
2017,07,19,04,42,11.70
2017,07,19,04,43,11.60
2017,07,19,04,44,11.60
2017,07,19,04,45,11.60
2017,07,19,04,46,11.60
2017,07,19,04,47,11.60
2017,07,19,04,48,11.50
2017,07,19,04,49,11.50
2017,07,19,04,50,11.50
2017,07,19,04,51,11.50
2017,07,19,04,52,11.50
2017,07,19,04,53,11.50
2017,07,19,04,54,11.50
2017,07,19,04,55,11.50
2017,07,19,04,56,11.50
2017,07,19,04,57,11.50
2017,07,19,04,58,11.60
2017,07,19,04,59,11.60
2017,07,19,05,00,11.60
2017,07,19,05,01,11.60
2017,07,19,05,02,11.60
2017,07,19,05,03,11.60
2017,07,19,05,04,11.60
2017,07,19,05,05,11.60
2017,07,19,05,06,11.60
2017,07,19,05,07,11.60
2017,07,19,05,08,11.50
2017,07,19,05,09,11.50
2017,07,19,05,10,11.50
2017,07,19,05,11,11.40
2017,07,19,05,12,11.40
2017,07,19,05,13,11.40
2017,07,19,05,14,11.30
2017,07,19,05,15,11.30
2017,07,19,05,16,11.20
2017,07,19,05,17,11.20
2017,07,19,05,18,11.20
2017,07,19,05,19,11.10
2017,07,19,05,20,11.10
2017,07,19,05,21,11.10
2017,07,19,05,22,11.10
2017,07,19,05,23,11.10
2017,07,19,05,24,11.10
2017,07,19,05,25,11.10
2017,07,19,05,26,11.10
2017,07,19,05,27,11.10
2017,07,19,05,28,11.00
2017,07,19,05,29,11.00
2017,07,19,05,30,11.00
2017,07,19,05,31,11.00
2017,07,19,05,32,10.90
2017,07,19,05,33,10.90
2017,07,19,05,34,10.90
2017,07,19,05,35,10.90
2017,07,19,05,36,10.90
2017,07,19,05,37,10.90
2017,07,19,05,38,10.90
2017,07,19,05,39,10.90
2017,07,19,05,40,10.80
2017,07,19,05,41,10.80
2017,07,19,05,42,10.80
2017,07,19,05,43,10.80
2017,07,19,05,44,10.80
2017,07,19,05,45,10.80
2017,07,19,05,46,10.80
2017,07,19,05,47,10.90
2017,07,19,05,48,11.00
2017,07,19,05,49,11.10
2017,07,19,05,50,11.20
2017,07,19,05,51,11.20
2017,07,19,05,52,11.20
2017,07,19,05,53,11.20
2017,07,19,05,54,11.20
2017,07,19,05,55,11.10
2017,07,19,05,56,11.10
2017,07,19,05,57,11.10
2017,07,19,05,58,11.00
2017,07,19,05,59,11.00
2017,07,19,06,00,10.90
2017,07,19,06,01,10.90
2017,07,19,06,02,10.90
2017,07,19,06,03,10.90
2017,07,19,06,04,10.90
2017,07,19,06,05,10.90
2017,07,19,06,06,10.90
2017,07,19,06,07,10.90
2017,07,19,06,08,10.90
2017,07,19,06,09,10.90
2017,07,19,06,10,10.90
2017,07,19,06,11,10.80
2017,07,19,06,12,10.90
2017,07,19,06,13,10.90
2017,07,19,06,14,10.90
2017,07,19,06,15,10.90
2017,07,19,06,16,10.90
2017,07,19,06,17,11.00
2017,07,19,06,18,11.00
2017,07,19,06,19,11.10
2017,07,19,06,20,11.20
2017,07,19,06,21,11.30
2017,07,19,06,22,11.40
2017,07,19,06,23,11.40
2017,07,19,06,24,11.50
2017,07,19,06,25,11.60
2017,07,19,06,26,11.70
2017,07,19,06,27,11.80
2017,07,19,06,28,11.80
2017,07,19,06,29,11.90
2017,07,19,06,30,12.00
2017,07,19,06,31,12.20
2017,07,19,06,32,12.30
2017,07,19,06,33,12.40
2017,07,19,06,34,12.50
2017,07,19,06,35,12.60
2017,07,19,06,36,12.70
2017,07,19,06,37,12.70
2017,07,19,06,38,12.80
2017,07,19,06,39,12.90
2017,07,19,06,40,12.90
2017,07,19,06,41,13.00
2017,07,19,06,42,13.00
2017,07,19,06,43,13.10
2017,07,19,06,44,13.20
2017,07,19,06,45,13.20
2017,07,19,06,46,13.30
2017,07,19,06,47,13.40
2017,07,19,06,48,13.50
2017,07,19,06,49,13.60
2017,07,19,06,50,13.70
2017,07,19,06,51,13.80
2017,07,19,06,52,13.80
2017,07,19,06,53,14.00
2017,07,19,06,54,14.10
2017,07,19,06,55,14.10
2017,07,19,06,56,14.20
2017,07,19,06,57,14.30
2017,07,19,06,58,14.40
2017,07,19,06,59,14.50
2017,07,19,07,00,14.60
2017,07,19,07,01,14.60
2017,07,19,07,02,14.70
2017,07,19,07,03,14.80
2017,07,19,07,04,14.80
2017,07,19,07,05,14.90
2017,07,19,07,06,15.00
2017,07,19,07,07,15.10
2017,07,19,07,08,15.20
2017,07,19,07,09,15.30
2017,07,19,07,10,15.30
2017,07,19,07,11,15.40
2017,07,19,07,12,15.40
2017,07,19,07,13,15.50
2017,07,19,07,14,15.50
2017,07,19,07,15,15.60
2017,07,19,07,16,15.60
2017,07,19,07,17,15.70
2017,07,19,07,18,15.70
2017,07,19,07,19,15.80
2017,07,19,07,20,15.80
2017,07,19,07,21,15.90
2017,07,19,07,22,16.00
2017,07,19,07,23,16.00
2017,07,19,07,24,16.00
2017,07,19,07,25,16.10
2017,07,19,07,26,16.10
2017,07,19,07,27,16.20
2017,07,19,07,28,16.20
2017,07,19,07,29,16.20
2017,07,19,07,30,16.20
2017,07,19,07,31,16.30
2017,07,19,07,32,16.30
2017,07,19,07,33,16.30
2017,07,19,07,34,16.30
2017,07,19,07,35,16.30
2017,07,19,07,36,16.40
2017,07,19,07,37,16.40
2017,07,19,07,38,16.40
2017,07,19,07,39,16.50
2017,07,19,07,40,16.50
2017,07,19,07,41,16.50
2017,07,19,07,42,16.60
2017,07,19,07,43,16.60
2017,07,19,07,44,16.70
2017,07,19,07,45,16.70
2017,07,19,07,46,16.70
2017,07,19,07,47,16.70
2017,07,19,07,48,16.70
2017,07,19,07,49,16.70
2017,07,19,07,50,16.70
2017,07,19,07,51,16.60
2017,07,19,07,52,16.60
2017,07,19,07,53,16.60
2017,07,19,07,54,16.50
2017,07,19,07,55,16.50
2017,07,19,07,56,16.40
2017,07,19,07,57,16.40
2017,07,19,07,58,16.30
2017,07,19,07,59,16.30
2017,07,19,08,00,16.30
2017,07,19,08,01,16.30
2017,07,19,08,02,16.30
2017,07,19,08,03,16.40
2017,07,19,08,04,16.40
2017,07,19,08,05,16.40
2017,07,19,08,06,16.40
2017,07,19,08,07,16.40
2017,07,19,08,08,16.40
2017,07,19,08,09,16.40
2017,07,19,08,10,16.30
2017,07,19,08,11,16.30
2017,07,19,08,12,16.30
2017,07,19,08,13,16.30
2017,07,19,08,14,16.30
2017,07,19,08,15,16.30
2017,07,19,08,16,16.40
2017,07,19,08,17,16.40
2017,07,19,08,18,16.50
2017,07,19,08,19,16.50
2017,07,19,08,20,16.60
2017,07,19,08,21,16.60
2017,07,19,08,22,16.60
2017,07,19,08,23,16.70
2017,07,19,08,24,16.70
2017,07,19,08,25,16.70
2017,07,19,08,26,16.70
2017,07,19,08,27,16.70
2017,07,19,08,28,16.70
2017,07,19,08,29,16.70
2017,07,19,08,30,16.70
2017,07,19,08,31,16.70
2017,07,19,08,32,16.80
2017,07,19,08,33,16.80
2017,07,19,08,34,16.90
2017,07,19,08,35,16.90
2017,07,19,08,36,17.00
2017,07,19,08,37,17.10
2017,07,19,08,38,17.20
2017,07,19,08,39,17.30
2017,07,19,08,40,17.30
2017,07,19,08,41,17.40
2017,07,19,08,42,17.50
2017,07,19,08,43,17.60
2017,07,19,08,44,17.70
2017,07,19,08,45,17.80
2017,07,19,08,46,17.80
2017,07,19,08,47,17.90
2017,07,19,08,48,18.00
2017,07,19,08,49,18.00
2017,07,19,08,50,18.10
2017,07,19,08,51,18.10
2017,07,19,08,52,18.20
2017,07,19,08,53,18.30
2017,07,19,08,54,18.30
2017,07,19,08,55,18.30
2017,07,19,08,56,18.40
2017,07,19,08,57,18.40
2017,07,19,08,58,18.50
2017,07,19,08,59,18.50
2017,07,19,09,00,18.40
2017,07,19,09,01,18.40
2017,07,19,09,02,18.40
2017,07,19,09,03,18.40
2017,07,19,09,04,18.40
2017,07,19,09,05,18.40
2017,07,19,09,06,18.40
2017,07,19,09,07,18.40
2017,07,19,09,08,18.50
2017,07,19,09,09,18.50
2017,07,19,09,10,18.60
2017,07,19,09,11,18.60
2017,07,19,09,12,18.60
2017,07,19,09,13,18.60
2017,07,19,09,14,18.70
2017,07,19,09,15,18.80
2017,07,19,09,16,18.80
2017,07,19,09,17,18.90
2017,07,19,09,18,18.90
2017,07,19,09,19,18.90
2017,07,19,09,20,18.90
2017,07,19,09,21,18.90
2017,07,19,09,22,18.90
2017,07,19,09,23,18.80
2017,07,19,09,24,18.80
2017,07,19,09,25,18.80
2017,07,19,09,26,18.80
2017,07,19,09,27,18.80
2017,07,19,09,28,18.80
2017,07,19,09,29,18.90
2017,07,19,09,30,18.90
2017,07,19,09,31,18.90
2017,07,19,09,32,18.90
2017,07,19,09,33,18.90
2017,07,19,09,34,19.00
2017,07,19,09,35,19.00
2017,07,19,09,36,19.10
2017,07,19,09,37,19.10
2017,07,19,09,38,19.10
2017,07,19,09,39,19.10
2017,07,19,09,40,19.10
2017,07,19,09,41,19.10
2017,07,19,09,42,19.10
2017,07,19,09,43,19.10
2017,07,19,09,44,19.10
2017,07,19,09,45,19.10
2017,07,19,09,46,19.10
2017,07,19,09,47,19.20
2017,07,19,09,48,19.20
2017,07,19,09,49,19.20
2017,07,19,09,50,19.20
2017,07,19,09,51,19.20
2017,07,19,09,52,19.10
2017,07,19,09,53,19.10
2017,07,19,09,54,19.10
2017,07,19,09,55,19.10
2017,07,19,09,56,19.10
2017,07,19,09,57,19.00
2017,07,19,09,58,19.00
2017,07,19,09,59,19.00
2017,07,19,10,00,19.00
2017,07,19,10,01,19.00
2017,07,19,10,02,19.00
2017,07,19,10,03,19.00
2017,07,19,10,04,19.00
2017,07,19,10,05,19.10
2017,07,19,10,06,19.10
2017,07,19,10,07,19.20
2017,07,19,10,08,19.20
2017,07,19,10,09,19.30
2017,07,19,10,10,19.30
2017,07,19,10,11,19.40
2017,07,19,10,12,19.40
2017,07,19,10,13,19.50
2017,07,19,10,14,19.50
2017,07,19,10,15,19.60
2017,07,19,10,16,19.60
2017,07,19,10,17,19.70
2017,07,19,10,18,19.80
2017,07,19,10,19,19.90
2017,07,19,10,20,20.00
2017,07,19,10,21,20.10
2017,07,19,10,22,20.20
2017,07,19,10,23,20.30
2017,07,19,10,24,20.30
2017,07,19,10,25,20.20
2017,07,19,10,26,20.10
2017,07,19,10,27,20.10
2017,07,19,10,28,20.00
2017,07,19,10,29,20.00
2017,07,19,10,30,20.00
2017,07,19,10,31,20.00
2017,07,19,10,32,20.10
2017,07,19,10,33,20.10
2017,07,19,10,34,20.10
2017,07,19,10,35,20.00
2017,07,19,10,36,20.00
2017,07,19,10,37,20.00
2017,07,19,10,38,20.00
2017,07,19,10,39,20.00
2017,07,19,10,40,20.00
2017,07,19,10,41,20.00
2017,07,19,10,42,20.10
2017,07,19,10,43,20.00
2017,07,19,10,44,20.00
2017,07,19,10,45,20.00
2017,07,19,10,46,19.90
2017,07,19,10,47,19.90
2017,07,19,10,48,19.90
2017,07,19,10,49,19.90
2017,07,19,10,50,20.00
2017,07,19,10,51,20.00
2017,07,19,10,52,20.10
2017,07,19,10,53,20.10
2017,07,19,10,54,20.10
2017,07,19,10,55,20.10
2017,07,19,10,56,20.10
2017,07,19,10,57,20.20
2017,07,19,10,58,20.30
2017,07,19,10,59,20.30
2017,07,19,11,00,20.40
2017,07,19,11,01,20.50
2017,07,19,11,02,20.50
2017,07,19,11,03,20.60
2017,07,19,11,04,20.60
2017,07,19,11,05,20.70
2017,07,19,11,06,20.70
2017,07,19,11,07,20.60
2017,07,19,11,08,20.60
2017,07,19,11,09,20.60
2017,07,19,11,10,20.70
2017,07,19,11,11,20.70
2017,07,19,11,12,20.70
2017,07,19,11,13,20.70
2017,07,19,11,14,20.70
2017,07,19,11,15,20.60
2017,07,19,11,16,20.60
2017,07,19,11,17,20.50
2017,07,19,11,18,20.50
2017,07,19,11,19,20.40
2017,07,19,11,20,20.30
2017,07,19,11,21,20.30
2017,07,19,11,22,20.30
2017,07,19,11,23,20.30
2017,07,19,11,24,20.30
2017,07,19,11,25,20.40
2017,07,19,11,26,20.40
2017,07,19,11,27,20.40
2017,07,19,11,28,20.30
2017,07,19,11,29,20.20
2017,07,19,11,30,20.10
2017,07,19,11,31,20.10
2017,07,19,11,32,20.10
2017,07,19,11,33,20.10
2017,07,19,11,34,20.10
2017,07,19,11,35,19.90
2017,07,19,11,36,19.80
2017,07,19,11,37,19.70
2017,07,19,11,38,19.60
2017,07,19,11,39,19.60
2017,07,19,11,40,19.60
2017,07,19,11,41,19.60
2017,07,19,11,42,19.60
2017,07,19,11,43,19.70
2017,07,19,11,44,19.80
2017,07,19,11,45,19.80
2017,07,19,11,46,19.90
2017,07,19,11,47,19.90
2017,07,19,11,48,20.00
2017,07,19,11,49,20.10
2017,07,19,11,50,20.20
2017,07,19,11,51,20.20
2017,07,19,11,52,20.20
2017,07,19,11,53,20.10
2017,07,19,11,54,20.10
2017,07,19,11,55,20.10
2017,07,19,11,56,20.10
2017,07,19,11,57,20.10
2017,07,19,11,58,20.10
2017,07,19,11,59,20.00
2017,07,19,12,00,20.00
2017,07,19,12,01,19.90
2017,07,19,12,02,19.80
2017,07,19,12,03,19.80
2017,07,19,12,04,19.70
2017,07,19,12,05,19.60
2017,07,19,12,06,19.50
2017,07,19,12,07,19.50
2017,07,19,12,08,19.40
2017,07,19,12,09,19.30
2017,07,19,12,10,19.30
2017,07,19,12,11,19.30
2017,07,19,12,12,19.20
2017,07,19,12,13,19.20
2017,07,19,12,14,19.20
2017,07,19,12,15,19.30
2017,07,19,12,16,19.30
2017,07,19,12,17,19.40
2017,07,19,12,18,19.50
2017,07,19,12,19,19.60
2017,07,19,12,20,19.70
2017,07,19,12,21,19.80
2017,07,19,12,22,20.00
2017,07,19,12,23,20.00
2017,07,19,12,24,20.10
2017,07,19,12,25,20.30
2017,07,19,12,26,20.40
2017,07,19,12,27,20.50
2017,07,19,12,28,20.50
2017,07,19,12,29,20.40
2017,07,19,12,30,20.30
2017,07,19,12,31,20.30
2017,07,19,12,32,20.30
2017,07,19,12,33,20.20
2017,07,19,12,34,20.20
2017,07,19,12,35,20.20
2017,07,19,12,36,20.20
2017,07,19,12,37,20.20
2017,07,19,12,38,20.20
2017,07,19,12,39,20.20
2017,07,19,12,40,20.30
2017,07,19,12,41,20.40
2017,07,19,12,42,20.50
2017,07,19,12,43,20.50
2017,07,19,12,44,20.50
2017,07,19,12,45,20.50
2017,07,19,12,46,20.40
2017,07,19,12,47,20.40
2017,07,19,12,48,20.40
2017,07,19,12,49,20.40
2017,07,19,12,50,20.40
2017,07,19,12,51,20.40
2017,07,19,12,52,20.30
2017,07,19,12,53,20.30
2017,07,19,12,54,20.20
2017,07,19,12,55,20.10
2017,07,19,12,56,20.10
2017,07,19,12,57,20.10
2017,07,19,12,58,20.10
2017,07,19,12,59,20.10
2017,07,19,13,00,20.10
2017,07,19,13,01,20.10
2017,07,19,13,02,20.20
2017,07,19,13,03,20.20
2017,07,19,13,04,20.30
2017,07,19,13,05,20.40
2017,07,19,13,06,20.40
2017,07,19,13,07,20.40
2017,07,19,13,08,20.40
2017,07,19,13,09,20.30
2017,07,19,13,10,20.30
2017,07,19,13,11,20.30
2017,07,19,13,12,20.20
2017,07,19,13,13,20.10
2017,07,19,13,14,20.00
2017,07,19,13,15,19.90
2017,07,19,13,16,19.90
2017,07,19,13,17,19.80
2017,07,19,13,18,19.80
2017,07,19,13,19,19.90
2017,07,19,13,20,20.00
2017,07,19,13,21,20.00
2017,07,19,13,22,20.10
2017,07,19,13,23,20.10
2017,07,19,13,24,20.10
2017,07,19,13,25,20.00
2017,07,19,13,26,19.90
2017,07,19,13,27,19.90
2017,07,19,13,28,19.90
2017,07,19,13,29,19.80
2017,07,19,13,30,19.80
2017,07,19,13,31,19.80
2017,07,19,13,32,19.80
2017,07,19,13,33,19.80
2017,07,19,13,34,19.80
2017,07,19,13,35,19.90
2017,07,19,13,36,19.90
2017,07,19,13,37,19.90
2017,07,19,13,38,19.90
2017,07,19,13,39,19.80
2017,07,19,13,40,19.80
2017,07,19,13,41,19.80
2017,07,19,13,42,19.80
2017,07,19,13,43,19.80
2017,07,19,13,44,19.80
2017,07,19,13,45,19.80
2017,07,19,13,46,19.80
2017,07,19,13,47,19.80
2017,07,19,13,48,19.80
2017,07,19,13,49,19.80
2017,07,19,13,50,19.80
2017,07,19,13,51,19.80
2017,07,19,13,52,19.80
2017,07,19,13,53,19.80
2017,07,19,13,54,19.80
2017,07,19,13,55,19.80
2017,07,19,13,56,19.80
2017,07,19,13,57,19.80
2017,07,19,13,58,19.80
2017,07,19,13,59,19.80
2017,07,19,14,00,19.70
2017,07,19,14,01,19.70
2017,07,19,14,02,19.70
2017,07,19,14,03,19.60
2017,07,19,14,04,19.60
2017,07,19,14,05,19.60
2017,07,19,14,06,19.60
2017,07,19,14,07,19.60
2017,07,19,14,08,19.70
2017,07,19,14,09,19.70
2017,07,19,14,10,19.70
2017,07,19,14,11,19.80
2017,07,19,14,12,19.80
2017,07,19,14,13,19.80
2017,07,19,14,14,19.70
2017,07,19,14,15,19.70
2017,07,19,14,16,19.70
2017,07,19,14,17,19.70
2017,07,19,14,18,19.70
2017,07,19,14,19,19.70
2017,07,19,14,20,19.70
2017,07,19,14,21,19.70
2017,07,19,14,22,19.70
2017,07,19,14,23,19.70
2017,07,19,14,24,19.70
2017,07,19,14,25,19.70
2017,07,19,14,26,19.70
2017,07,19,14,27,19.70
2017,07,19,14,28,19.70
2017,07,19,14,29,19.70
2017,07,19,14,30,19.70
2017,07,19,14,31,19.70
2017,07,19,14,32,19.70
2017,07,19,14,33,19.70
2017,07,19,14,34,19.80
2017,07,19,14,35,19.80
2017,07,19,14,36,19.90
2017,07,19,14,37,19.90
2017,07,19,14,38,20.00
2017,07,19,14,39,20.00
2017,07,19,14,40,20.10
2017,07,19,14,41,20.10
2017,07,19,14,42,20.10
2017,07,19,14,43,20.10
2017,07,19,14,44,20.10
2017,07,19,14,45,20.10
2017,07,19,14,46,20.20
2017,07,19,14,47,20.20
2017,07,19,14,48,20.20
2017,07,19,14,49,20.30
2017,07,19,14,50,20.30
2017,07,19,14,51,20.40
2017,07,19,14,52,20.40
2017,07,19,14,53,20.50
2017,07,19,14,54,20.60
2017,07,19,14,55,20.70
2017,07,19,14,56,20.70
2017,07,19,14,57,20.70
2017,07,19,14,58,20.70
2017,07,19,14,59,20.70
2017,07,19,15,00,20.70
2017,07,19,15,01,20.70
2017,07,19,15,02,20.80
2017,07,19,15,03,20.80
2017,07,19,15,04,20.90
2017,07,19,15,05,20.90
2017,07,19,15,06,20.90
2017,07,19,15,07,20.90
2017,07,19,15,08,20.90
2017,07,19,15,09,20.90
2017,07,19,15,10,21.00
2017,07,19,15,11,21.00
2017,07,19,15,12,21.10
2017,07,19,15,13,21.10
2017,07,19,15,14,21.10
2017,07,19,15,15,21.10
2017,07,19,15,16,21.10
2017,07,19,15,17,21.10
2017,07,19,15,18,21.10
2017,07,19,15,19,21.10
2017,07,19,15,20,21.10
2017,07,19,15,21,21.10
2017,07,19,15,22,21.10
2017,07,19,15,23,21.00
2017,07,19,15,24,21.00
2017,07,19,15,25,21.00
2017,07,19,15,26,21.10
2017,07,19,15,27,21.10
2017,07,19,15,28,21.20
2017,07,19,15,29,21.20
2017,07,19,15,30,21.20
2017,07,19,15,31,21.20
2017,07,19,15,32,21.20
2017,07,19,15,33,21.20
2017,07,19,15,34,21.10
2017,07,19,15,35,21.10
2017,07,19,15,36,21.10
2017,07,19,15,37,21.00
2017,07,19,15,38,21.00
2017,07,19,15,39,20.90
2017,07,19,15,40,20.90
2017,07,19,15,41,20.80
2017,07,19,15,42,20.80
2017,07,19,15,43,20.80
2017,07,19,15,44,20.80
2017,07,19,15,45,20.70
2017,07,19,15,46,20.70
2017,07,19,15,47,20.70
2017,07,19,15,48,20.70
2017,07,19,15,49,20.70
2017,07,19,15,50,20.70
2017,07,19,15,51,20.80
2017,07,19,15,52,20.80
2017,07,19,15,53,20.90
2017,07,19,15,54,20.90
2017,07,19,15,55,21.00
2017,07,19,15,56,21.10
2017,07,19,15,57,21.20
2017,07,19,15,58,21.30
2017,07,19,15,59,21.40
2017,07,19,16,00,21.50
2017,07,19,16,01,21.60
2017,07,19,16,02,21.70
2017,07,19,16,03,21.70
2017,07,19,16,04,21.70
2017,07,19,16,05,21.70
2017,07,19,16,06,21.70
2017,07,19,16,07,21.70
2017,07,19,16,08,21.70
2017,07,19,16,09,21.70
2017,07,19,16,10,21.60
2017,07,19,16,11,21.60
2017,07,19,16,12,21.60
2017,07,19,16,13,21.60
2017,07,19,16,14,21.60
2017,07,19,16,15,21.60
2017,07,19,16,16,21.50
2017,07,19,16,17,21.40
2017,07,19,16,18,21.40
2017,07,19,16,19,21.30
2017,07,19,16,20,21.20
2017,07,19,16,21,21.20
2017,07,19,16,22,21.10
2017,07,19,16,23,21.10
2017,07,19,16,24,21.00
2017,07,19,16,25,21.00
2017,07,19,16,26,21.00
2017,07,19,16,27,21.10
2017,07,19,16,28,21.10
2017,07,19,16,29,21.20
2017,07,19,16,30,21.20
2017,07,19,16,31,21.20
2017,07,19,16,32,21.20
2017,07,19,16,33,21.30
2017,07,19,16,34,21.40
2017,07,19,16,35,21.40
2017,07,19,16,36,21.30
2017,07,19,16,37,21.20
2017,07,19,16,38,21.20
2017,07,19,16,39,21.20
2017,07,19,16,40,21.20
2017,07,19,16,41,21.10
2017,07,19,16,42,21.10
2017,07,19,16,43,21.00
2017,07,19,16,44,20.90
2017,07,19,16,45,20.90
2017,07,19,16,46,20.90
2017,07,19,16,47,20.90
2017,07,19,16,48,20.90
2017,07,19,16,49,20.90
2017,07,19,16,50,20.90
2017,07,19,16,51,21.00
2017,07,19,16,52,21.00
2017,07,19,16,53,21.00
2017,07,19,16,54,21.00
2017,07,19,16,55,21.00
2017,07,19,16,56,21.00
2017,07,19,16,57,21.00
2017,07,19,16,58,21.00
2017,07,19,16,59,21.00
2017,07,19,17,00,21.00
2017,07,19,17,01,21.10
2017,07,19,17,02,21.10
2017,07,19,17,03,21.10
2017,07,19,17,04,21.10
2017,07,19,17,05,21.20
2017,07,19,17,06,21.20
2017,07,19,17,07,21.30
2017,07,19,17,08,21.40
2017,07,19,17,09,21.50
2017,07,19,17,10,21.60
2017,07,19,17,11,21.60
2017,07,19,17,12,21.70
2017,07,19,17,13,21.70
2017,07,19,17,14,21.70
2017,07,19,17,15,21.60
2017,07,19,17,16,21.60
2017,07,19,17,17,21.50
2017,07,19,17,18,21.50
2017,07,19,17,19,21.50